Location: Starlight Observatory
(38.4029°N, 85.8936°W)
Time: 18:33:19
(UTC-04:00)

Amateur Radio Satellites - All Passes

Search period start: 01 April 2015 18:03
Search period end: 02 April 2015 18:03
Location: Starlight Observatory, 38.4029°N, 85.8936°W

Satellite Date Start Highest point End Downlink Frequencies (MHz)
Time Altitude Azimuth
M-CUBED/EXP-1 PRIME 01 Apr 18:10:32 18:12:54 14° 93° (E) 18:15:29 437.505
MOZHAYETS 4 01 Apr 18:18:59 18:23:37 64° 101° (E) 18:28:12
STARS 01 Apr 18:21:49 18:23:25 12° 295° (WNW) 18:24:48 437.465
BEESAT 2 01 Apr 18:25:22 18:27:47 15° 44° (NE) 18:30:17 435.950
AO-7 01 Apr 18:28:44 18:35:23 25° 267° (W) 18:41:44 29.400- 29.500
SO-50 01 Apr 18:52:53 18:57:23 57° 117° (ESE) 19:02:04 436.795
BEESAT 3 01 Apr 18:57:17 19:01:02 33° 52° (NE) 19:04:45 437.485
GONETS M04 01 Apr 18:59:08 19:05:29 24° 83° (E) 19:12:14
AUBIESAT-1 01 Apr 19:15:50 19:20:37 62° 105° (ESE) 19:25:12 437.475
CUTE-I 01 Apr 19:19:31 19:24:54 85° 254° (WSW) 19:30:18 437.470
Cubesat XI-IV 01 Apr 19:20:48 19:26:11 82° 257° (WSW) 19:31:35 437.490
PRISM 01 Apr 19:34:59 19:38:02 20° 94° (E) 19:41:11 437.425
M-CUBED/EXP-1 PRIME 01 Apr 19:43:26 19:48:15 61° 290° (WNW) 19:52:51 437.505
AIST 2 01 Apr 19:57:05 20:01:07 41° 54° (NE) 20:05:07 435.215
MOZHAYETS 4 01 Apr 19:58:11 20:00:21 13° 295° (WNW) 20:02:17
BEESAT 2 01 Apr 20:02:15 20:06:19 56° 242° (WSW) 20:10:17 435.950
RS-15 01 Apr 20:04:22 20:15:17 86° 302° (WNW) 20:26:25 29.354- 29.394
CUBESAT XI-V 01 Apr 20:16:04 20:20:43 85° 102° (ESE) 20:25:19 437.345
HO-68 01 Apr 20:21:48 20:27:19 26° 62° (ENE) 20:33:04 435.675
SO-50 01 Apr 20:34:59 20:38:21 19° 317° (NW) 20:41:43 436.795
BEESAT 3 01 Apr 20:35:50 20:38:54 20° 248° (WSW) 20:41:50 437.485
AUBIESAT-1 01 Apr 20:52:03 20:54:55 16° 300° (WNW) 20:57:35 437.475
STRAND 1 01 Apr 20:52:09 20:57:17 87° 285° (WNW) 21:02:23 437.568
GONETS M04 01 Apr 20:53:03 21:01:40 66° 280° (W) 21:10:24
BRITE-PL 01 Apr 20:54:06 20:58:27 42° 74° (ENE) 21:02:33 437.365/2234.400
DOVE 4 01 Apr 20:55:09 20:57:54 17° 69° (ENE) 21:00:45 437.250
CANX-2 01 Apr 21:05:49 21:09:33 31° 72° (ENE) 21:13:21 2200.000
PRISM 01 Apr 21:09:56 21:13:35 29° 289° (WNW) 21:17:09 437.425
CUTE 1.7 + AOD 2 01 Apr 21:18:56 21:22:53 40° 73° (ENE) 21:26:54 437.475
GOMX 1 01 Apr 21:22:12 21:26:31 54° 75° (ENE) 21:30:40 467.674
DANDE 01 Apr 21:26:55 21:29:33 30° 97° (E) 21:31:57 436.750
AAUSAT CUBESAT 2 01 Apr 21:29:38 21:33:17 31° 72° (ENE) 21:37:01 437.432
CUBEBUG 2 01 Apr 21:33:35 21:35:07 12° 66° (ENE) 21:36:51 437.445
AIST 2 01 Apr 21:36:38 21:39:26 17° 249° (WSW) 21:42:04 435.215
SEEDS 01 Apr 21:42:27 21:46:37 63° 75° (ENE) 21:50:49 437.485
CINEMA 3 01 Apr 21:43:57 21:47:34 30° 72° (ENE) 21:51:14 145.822/145.860
UKube-1 01 Apr 21:56:58 21:58:24 12° 65° (ENE) 22:00:03 .
CUSAT 1 01 Apr 21:57:31 22:00:07 39° 281° (W) 22:02:35 437.405
COMPASS 1 01 Apr 21:59:13 22:03:24 82° 77° (ENE) 22:07:38 437.405
ISS 01 Apr 22:00:20 22:03:25 40° 135° (SE) 22:06:30 145.825
HO-68 01 Apr 22:07:32 22:14:36 61° 258° (WSW) 22:21:43 435.675
DX 1 01 Apr 22:10:37 22:13:28 18° 67° (ENE) 22:16:28 434.975-435.025
RS-15 01 Apr 22:20:32 22:29:36 28° 328° (NNW) 22:38:39 29.354- 29.394
DELFI C3 01 Apr 22:21:23 22:25:14 42° 73° (ENE) 22:29:07 145.870
Oscar 11 01 Apr 22:22:01 22:26:14 58° 75° (ENE) 22:30:31 145.826/435.025
DOVE 4 01 Apr 22:31:33 22:35:31 35° 263° (W) 22:39:21 437.250
BRITE-PL 01 Apr 22:34:19 22:37:12 16° 268° (W) 22:39:48 437.365/2234.400
STRAND 1 01 Apr 22:35:06 22:35:48 10° 299° (WNW) 22:36:10 437.568
FUNcube-1 01 Apr 22:40:18 22:44:14 45° 74° (ENE) 22:48:14 145.935
CANX-2 01 Apr 22:42:24 22:45:34 20° 267° (W) 22:48:39 2200.000
UWE-3 01 Apr 22:54:17 22:58:26 87° 78° (ENE) 23:02:37 435.000/436.395/437.385
ZACube-1 01 Apr 22:54:28 22:58:34 69° 76° (ENE) 23:02:44 437.345
CUTE 1.7 + AOD 2 01 Apr 22:56:26 22:59:03 15° 269° (W) 23:01:31 437.475
CUBEBUG 1 01 Apr 22:56:56 22:57:38 10° 64° (ENE) 22:58:35 437.445
GONETS M04 01 Apr 22:57:51 23:00:45 11° 304° (NW) 23:02:56
GOMX 1 01 Apr 23:03:33 23:05:02 11° 270° (W) 23:06:14 467.674
VELOX 1 01 Apr 23:04:36 23:08:24 29° 70° (ENE) 23:12:15 145.980
AAUSAT CUBESAT 2 01 Apr 23:05:54 23:09:00 20° 267° (W) 23:12:01 437.432
CUBEBUG 2 01 Apr 23:07:23 23:11:26 52° 261° (W) 23:15:30 437.445
AISAT 01 Apr 23:10:43 23:14:43 35° 71° (ENE) 23:18:46 437.250
HUMSAT D 01 Apr 23:15:38 23:19:39 58° 75° (ENE) 23:23:44 437.325/437.525
50 SAT 01 Apr 23:18:53 23:22:31 39° 73° (ENE) 23:26:14 437.505
CINEMA 3 01 Apr 23:21:50 23:24:53 19° 267° (W) 23:27:49 145.822/145.860
UNISAT 6 01 Apr 23:22:10 23:25:13 18° 92° (E) 23:28:28 437.425
UKube-1 01 Apr 23:29:48 23:34:05 62° 259° (W) 23:38:24 .
TIGRISAT 01 Apr 23:30:18 23:33:45 21° 93° (E) 23:37:22 435.000
ISS 01 Apr 23:37:13 23:39:55 23° 332° (NNW) 23:42:36 145.825
DX 1 01 Apr 23:45:23 23:49:28 38° 262° (W) 23:53:33 434.975-435.025
ESTCUBE 1 01 Apr 23:52:32 23:56:55 50° 73° (ENE) 00:01:21 437.505/2401.250
PCSat 01 Apr 23:56:35 00:01:47 46° 57° (ENE) 00:06:59 145.827
DELFI C3 01 Apr 23:58:30 00:00:40 14° 270° (W) 00:02:39 145.870
POPSAT HIP 1 01 Apr 23:59:09 00:02:16 20° 94° (E) 00:05:31 437.405
Oscar 11 02 Apr 00:01:38 00:02:54 11° 272° (W) 00:03:53 145.826/435.025
ANTELSAT 02 Apr 00:01:51 00:06:20 48° 99° (E) 00:10:53 437.575/2403.000
TISAT 1 02 Apr 00:02:18 00:03:30 11° 65° (ENE) 00:04:57 437.305
NANOSAT C BR1 02 Apr 00:07:50 00:11:20 25° 95° (E) 00:14:55 145.865
POLYITAN 1 02 Apr 00:15:21 00:19:09 32° 97° (E) 00:23:01 437.675
FUNcube-1 02 Apr 00:18:54 00:20:55 13° 270° (W) 00:22:43 145.935
SPROUT 02 Apr 00:24:18 00:27:43 24° 70° (ENE) 00:31:13 437.525
CUBEBUG 1 02 Apr 00:29:06 00:33:30 71° 258° (WSW) 00:37:53 437.445
RS-15 02 Apr 00:40:58 00:47:26 16° 3° (N) 00:54:06 29.354- 29.394
VELOX 1 02 Apr 00:41:22 00:44:59 23° 265° (W) 00:48:30 145.980
AISAT 02 Apr 00:48:11 00:51:27 19° 267° (W) 00:54:36 437.250
DUCHIFAT 1 02 Apr 00:49:31 00:53:45 80° 102° (ESE) 00:57:59 145.980
QB50P1 02 Apr 00:49:56 00:54:11 83° 102° (ESE) 00:58:26 145.935-145.965
YUBILEINY 02 Apr 00:50:56 00:58:53 38° 72° (ENE) 01:06:55 435.215
50 SAT 02 Apr 00:55:40 00:57:41 13° 269° (W) 00:59:31 437.505
UNISAT 6 02 Apr 00:57:50 01:02:13 42° 287° (WNW) 01:06:37 437.425
QB50P2 02 Apr 01:06:12 01:10:25 62° 285° (WNW) 01:14:36 145.880/145.840
TIGRISAT 02 Apr 01:06:23 01:10:36 35° 288° (WNW) 01:14:50 435.000
BUGSAT 1 02 Apr 01:12:48 01:16:50 75° 284° (WNW) 01:20:52 437.445
ESTCUBE 1 02 Apr 01:31:35 01:34:09 14° 270° (W) 01:36:29 437.505/2401.250
POPSAT HIP 1 02 Apr 01:34:29 01:38:14 30° 289° (WNW) 01:41:55 437.405
TISAT 1 02 Apr 01:34:42 01:38:52 60° 259° (W) 01:43:03 437.305
ANTELSAT 02 Apr 01:39:47 01:42:48 17° 293° (WNW) 01:45:40 437.575/2403.000
PCSat 02 Apr 01:40:42 01:44:56 23° 252° (WSW) 01:49:00 145.827
NANOSAT C BR1 02 Apr 01:43:40 01:47:08 24° 290° (WNW) 01:50:32 145.865
ITUPSAT 1 02 Apr 01:46:20 01:50:18 27° 69° (ENE) 01:54:23 437.325
POLYITAN 1 02 Apr 01:51:45 01:54:54 20° 291° (WNW) 01:57:58 437.675
Oscar 19 02 Apr 01:56:02 01:57:56 12° 88° (E) 02:00:10 437.125/150
SPROUT 02 Apr 02:00:05 02:03:44 26° 265° (W) 02:07:20 437.525
SWISSCUBE 02 Apr 02:31:27 02:36:15 87° 77° (ENE) 02:41:06 437.505
BEESAT 02 Apr 02:33:43 02:38:31 85° 74° (ENE) 02:43:21 436.000
YUBILEINY 02 Apr 02:47:37 02:55:53 45° 271° (W) 03:03:57 435.215
ISS 02 Apr 02:54:51 02:54:54 10° 12° (NNE) 02:55:00 145.825
RS-15 02 Apr 02:55:15 03:04:59 32° 36° (NE) 03:15:21 29.354- 29.394
O/OREOS (USA 219) 02 Apr 03:05:31 03:05:38 10° 99° (E) 03:06:03 437.305
ITAMSAT 1 02 Apr 03:08:46 03:12:26 20° 92° (E) 03:16:16 435.822/435.867
KKS-1 02 Apr 03:15:58 03:20:07 41° 73° (ENE) 03:24:19 437.445
ITUPSAT 1 02 Apr 03:23:53 03:28:08 30° 264° (W) 03:32:21 437.325
SO-50 02 Apr 03:25:50 03:30:25 36° 51° (NE) 03:34:58 436.795
Oscar 19 02 Apr 03:32:44 03:37:54 72° 286° (WNW) 03:43:05 437.125/150
STARS 02 Apr 03:38:35 03:42:45 46° 73° (ENE) 03:46:58 437.465
VERMONT LUNAR 02 Apr 04:05:48 04:08:29 23° 150° (SSE) 04:11:12 437.305
AIST 1 02 Apr 04:07:44 04:11:19 26° 90° (E) 04:15:00
Gurwin Techsat 1B 02 Apr 04:19:42 04:25:02 82° 101° (E) 04:30:22 435.225
ISS 02 Apr 04:29:10 04:32:07 32° 31° (NNE) 04:35:04 145.825
AO-7 02 Apr 04:38:10 04:44:12 23° 92° (E) 04:50:35 29.400- 29.500
O/OREOS (USA 219) 02 Apr 04:39:57 04:44:31 69° 292° (WNW) 04:49:07 437.305
ITAMSAT 1 02 Apr 04:47:17 04:52:13 45° 289° (WNW) 04:57:05 435.822/435.867
JAS-2 02 Apr 04:52:20 04:58:17 26° 89° (E) 05:04:00 435.910
KKS-1 02 Apr 04:54:08 04:57:00 16° 268° (W) 04:59:42 437.445
M-CUBED/EXP-1 PRIME 02 Apr 04:58:05 05:00:14 14° 59° (ENE) 05:02:38 437.505
SO-50 02 Apr 05:06:40 05:10:51 27° 247° (WSW) 05:14:53 436.795
RS-15 02 Apr 05:07:22 05:18:58 85° 241° (WSW) 05:31:04 29.354- 29.394
STARS 02 Apr 05:17:05 05:19:32 14° 269° (W) 05:21:46 437.465
MOZHAYETS 4 02 Apr 05:19:20 05:23:47 49° 73° (ENE) 05:28:17
PHONESAT 2.4 02 Apr 05:19:29 05:22:41 34° 153° (SSE) 05:25:55 2401.200-2431.200
HORYU 2 02 Apr 05:22:23 05:26:56 84° 104° (ESE) 05:31:26 437.375
VERMONT LUNAR 02 Apr 05:42:35 05:45:55 90° 96° (E) 05:49:16 437.305
AIST 1 02 Apr 05:45:21 05:48:58 24° 286° (WNW) 05:52:30
Gurwin Techsat 1B 02 Apr 06:02:04 06:04:25 13° 298° (WNW) 06:06:29 435.225
AUBIESAT-1 02 Apr 06:02:27 06:06:31 60° 69° (ENE) 06:10:56 437.475
ISS 02 Apr 06:05:43 06:08:26 24° 227° (SW) 06:11:06 145.825
PRISM 02 Apr 06:25:02 06:27:05 14° 66° (ENE) 06:29:21 437.425
AO-7 02 Apr 06:29:31 06:37:47 72° 290° (WNW) 06:46:01 29.400- 29.500
STRAND 1 02 Apr 06:30:30 06:32:56 14° 63° (ENE) 06:35:37 437.568
M-CUBED/EXP-1 PRIME 02 Apr 06:30:35 06:34:36 56° 256° (WSW) 06:39:00 437.505
JAS-2 02 Apr 06:36:23 06:43:52 58° 289° (WNW) 06:50:37 435.910
PHONESAT 2.4 02 Apr 06:57:22 07:00:54 75° 350° (N) 07:04:25 2401.200-2431.200
MOZHAYETS 4 02 Apr 06:58:38 07:01:22 15° 270° (W) 07:03:53
GONETS M04 02 Apr 07:05:01 07:13:44 60° 78° (ENE) 07:22:27
CUBESAT XI-V 02 Apr 07:17:42 07:22:22 69° 76° (ENE) 07:27:03 437.345
VERMONT LUNAR 02 Apr 07:20:26 07:23:44 57° 2° (N) 07:27:02 437.305
RS-15 02 Apr 07:22:20 07:30:10 20° 258° (WSW) 07:37:19 29.354- 29.394
CUTE-I 02 Apr 07:38:25 07:43:27 43° 98° (E) 07:48:29 437.470
Cubesat XI-IV 02 Apr 07:39:51 07:44:55 45° 98° (E) 07:50:00 437.490
AUBIESAT-1 02 Apr 07:40:38 07:41:56 11° 268° (W) 07:42:59 437.475
PRISM 02 Apr 07:58:07 08:02:12 48° 260° (W) 08:06:19 437.425
DANDE 02 Apr 08:05:06 08:09:12 33° 78° (ENE) 08:14:37 436.750
STRAND 1 02 Apr 08:06:28 08:11:36 71° 258° (WSW) 08:16:46 437.568
AO-7 02 Apr 08:24:48 08:29:21 15° 309° (NW) 08:33:26 29.400- 29.500
JAS-2 02 Apr 08:25:22 08:27:23 11° 307° (NW) 08:28:50 435.910
CUSAT 1 02 Apr 08:32:13 08:37:03 83° 81° (E) 08:43:34 437.405
PHONESAT 2.4 02 Apr 08:35:54 08:39:24 62° 5° (N) 08:42:54 2401.200-2431.200
VERMONT LUNAR 02 Apr 08:58:10 09:01:30 75° 198° (SSW) 09:04:50 437.305
CUBESAT XI-V 02 Apr 08:59:07 09:00:23 11° 272° (W) 09:01:20 437.345
BRITE-PL 02 Apr 09:01:05 09:03:13 14° 91° (E) 09:05:39 437.365/2234.400
GONETS M04 02 Apr 09:02:51 09:10:05 28° 275° (W) 09:17:01
CUTE-I 02 Apr 09:19:09 09:23:18 23° 294° (WNW) 09:27:18 437.470
Cubesat XI-IV 02 Apr 09:20:41 09:24:46 22° 294° (WNW) 09:28:41 437.490
GOMX 1 02 Apr 09:25:45 09:28:37 17° 93° (E) 09:31:47 467.674
SEEDS 02 Apr 09:30:30 09:32:05 12° 89° (E) 09:33:55 437.485
HO-68 02 Apr 09:37:23 09:43:23 29° 94° (E) 09:49:31 435.675
COMPASS 1 02 Apr 09:45:47 09:48:08 15° 91° (E) 09:50:41 437.405
DANDE 02 Apr 09:48:33 09:52:29 25° 264° (W) 09:57:13 436.750
BEESAT 2 02 Apr 09:54:58 09:58:45 38° 115° (ESE) 10:02:38 435.950
AIST 2 02 Apr 09:55:57 09:57:44 13° 109° (ESE) 09:59:46 435.215
Oscar 11 02 Apr 10:12:58 10:14:34 12° 89° (E) 10:16:24 145.826/435.025
PHONESAT 2.4 02 Apr 10:14:17 10:17:45 56° 202° (SSW) 10:21:13 2401.200-2431.200
CUSAT 1 02 Apr 10:18:16 10:19:53 11° 268° (W) 10:21:08 437.405
UNISAT 6 02 Apr 10:21:26 10:23:13 13° 65° (ENE) 10:25:14 437.425
BEESAT 3 02 Apr 10:26:35 10:30:39 77° 301° (WNW) 10:34:49 437.485
CANX-2 02 Apr 10:27:51 10:32:12 79° 102° (ESE) 10:36:31 2200.000
TIGRISAT 02 Apr 10:29:01 10:31:22 15° 66° (ENE) 10:33:55 435.000
DOVE 4 02 Apr 10:30:52 10:35:16 62° 101° (E) 10:39:57 437.250
FUNcube-1 02 Apr 10:32:54 10:33:26 10° 88° (E) 10:34:18 145.935
VERMONT LUNAR 02 Apr 10:36:31 10:38:52 17° 212° (SSW) 10:41:08 437.305
BRITE-PL 02 Apr 10:37:56 10:42:03 46° 286° (WNW) 10:46:22 437.365/2234.400
CUTE 1.7 + AOD 2 02 Apr 10:41:09 10:45:29 81° 284° (WNW) 10:49:47 437.475
ZACube-1 02 Apr 10:45:38 10:48:14 16° 91° (E) 10:51:04 437.345
UWE-3 02 Apr 10:46:10 10:49:26 20° 93° (E) 10:52:53 435.000/436.395/437.385
AAUSAT CUBESAT 2 02 Apr 10:49:10 10:53:25 73° 101° (E) 10:57:37 437.432
POPSAT HIP 1 02 Apr 10:51:56 10:53:58 14° 67° (ENE) 10:56:11 437.405
CUBEBUG 2 02 Apr 10:59:36 11:03:43 34° 97° (E) 11:07:57 437.445
ANTELSAT 02 Apr 10:59:57 11:03:46 33° 71° (ENE) 11:07:42 437.575/2403.000
NANOSAT C BR1 02 Apr 11:00:02 11:02:40 17° 68° (ENE) 11:05:27 145.865
GOMX 1 02 Apr 11:02:51 11:06:57 39° 286° (WNW) 11:11:13 467.674
HUMSAT D 02 Apr 11:03:41 11:04:47 11° 89° (E) 11:06:09 437.325/437.525
SEEDS 02 Apr 11:04:06 11:08:17 52° 286° (WNW) 11:12:26 437.485
POLYITAN 1 02 Apr 11:07:43 11:10:50 21° 69° (ENE) 11:14:04 437.675
CINEMA 3 02 Apr 11:16:02 11:20:34 82° 283° (WNW) 11:25:18 145.822/145.860
UKube-1 02 Apr 11:19:29 11:22:56 24° 95° (E) 11:26:27 .
COMPASS 1 02 Apr 11:20:04 11:24:06 41° 287° (WNW) 11:28:04 437.405
HO-68 02 Apr 11:24:29 11:31:25 51° 292° (WNW) 11:38:16 435.675
AIST 2 02 Apr 11:31:44 11:35:55 56° 303° (WNW) 11:40:09 435.215
BEESAT 2 02 Apr 11:33:55 11:37:04 20° 313° (NW) 11:40:10 435.950
DX 1 02 Apr 11:35:05 11:39:08 38° 98° (E) 11:43:10 434.975-435.025
DELFI C3 02 Apr 11:37:23 11:41:31 88° 278° (W) 11:45:35 145.870
DUCHIFAT 1 02 Apr 11:40:32 11:44:34 47° 74° (ENE) 11:48:37 145.980
QB50P1 02 Apr 11:41:14 11:45:18 49° 74° (ENE) 11:49:23 145.935-145.965
Oscar 11 02 Apr 11:46:53 11:51:09 54° 286° (WNW) 11:55:24 145.826/435.025
ESTCUBE 1 02 Apr 11:49:08 11:50:33 12° 89° (E) 11:52:15 437.505/2401.250
PHONESAT 2.4 02 Apr 11:54:02 11:55:39 12° 215° (SW) 11:57:10 2401.200-2431.200
UNISAT 6 02 Apr 11:55:24 11:59:35 54° 260° (W) 12:03:51 437.425
QB50P2 02 Apr 11:57:28 12:01:41 80° 76° (ENE) 12:05:55 145.880/145.840
BUGSAT 1 02 Apr 12:01:15 12:05:19 60° 75° (ENE) 12:09:22 437.445
TIGRISAT 02 Apr 12:03:42 12:07:47 44° 261° (W) 12:11:56 435.000
FUNcube-1 02 Apr 12:05:51 12:10:17 66° 284° (WNW) 12:14:45 145.935
DOVE 4 02 Apr 12:10:46 12:12:42 12° 293° (WNW) 12:14:26 437.250
CUBEBUG 1 02 Apr 12:20:14 12:23:38 23° 94° (E) 12:27:07 437.445
ZACube-1 02 Apr 12:20:37 12:24:51 44° 287° (WNW) 12:29:09 437.345
UWE-3 02 Apr 12:21:59 12:26:05 35° 288° (WNW) 12:30:13 435.000/436.395/437.385
POPSAT HIP 1 02 Apr 12:25:26 12:29:30 48° 261° (W) 12:33:35 437.405
VELOX 1 02 Apr 12:32:23 12:36:48 73° 102° (ESE) 12:41:11 145.980
50 SAT 02 Apr 12:32:29 12:36:33 83° 103° (ESE) 12:40:37 437.505
NANOSAT C BR1 02 Apr 12:34:20 12:38:16 37° 262° (W) 12:42:11 145.865
HUMSAT D 02 Apr 12:36:45 12:40:58 57° 285° (WNW) 12:45:12 437.325/437.525
CUBEBUG 2 02 Apr 12:36:47 12:40:14 21° 291° (WNW) 12:43:39 437.445
ANTELSAT 02 Apr 12:37:37 12:40:43 19° 268° (W) 12:43:43 437.575/2403.000
AISAT 02 Apr 12:39:00 12:43:26 89° 104° (ESE) 12:47:51 437.250
POLYITAN 1 02 Apr 12:42:54 12:46:38 29° 264° (W) 12:50:19 437.675
UKube-1 02 Apr 12:55:23 12:59:05 27° 290° (WNW) 13:02:42 .
Oscar 19 02 Apr 13:11:13 13:14:17 17° 65° (ENE) 13:17:34 437.125/150
DX 1 02 Apr 13:12:08 13:15:08 18° 293° (WNW) 13:18:00 434.975-435.025
O/OREOS (USA 219) 02 Apr 13:13:23 13:16:19 17° 56° (NE) 13:19:22 437.305
DUCHIFAT 1 02 Apr 13:18:44 13:20:44 13° 270° (W) 13:22:30 145.980
QB50P1 02 Apr 13:19:41 13:21:32 12° 270° (W) 13:23:08 145.935-145.965
TISAT 1 02 Apr 13:21:25 13:24:44 23° 94° (E) 13:28:08 437.305
ESTCUBE 1 02 Apr 13:23:27 13:27:54 59° 286° (WNW) 13:32:18 437.505/2401.250
SPROUT 02 Apr 13:47:29 13:51:43 58° 100° (E) 13:55:56 437.525
YUBILEINY 02 Apr 13:49:42 13:57:50 46° 89° (E) 14:06:08 435.215
CUBEBUG 1 02 Apr 13:56:17 14:00:01 28° 290° (WNW) 14:03:40 437.445
Gurwin Techsat 1B 02 Apr 14:02:44 14:05:11 14° 63° (ENE) 14:07:56 435.225
VELOX 1 02 Apr 14:12:05 14:12:51 10° 296° (WNW) 14:13:21 145.980
ITAMSAT 1 02 Apr 14:25:11 14:29:28 27° 68° (ENE) 14:33:53 435.822/435.867
JUGNU 02 Apr 14:27:28 14:29:41 12° 177° (S) 14:31:55 437.505
SWISSCUBE 02 Apr 14:34:02 14:37:54 25° 94° (E) 14:41:51 437.505
BEESAT 02 Apr 14:36:13 14:40:02 24° 94° (E) 14:43:57 436.000
PCSat 02 Apr 14:36:30 14:41:47 57° 114° (ESE) 14:47:08 145.827
Oscar 19 02 Apr 14:48:12 14:53:13 57° 259° (W) 14:58:17 437.125/150
O/OREOS (USA 219) 02 Apr 14:51:42 14:56:03 45° 254° (WSW) 15:00:19 437.305
TISAT 1 02 Apr 14:56:58 15:00:32 27° 290° (WNW) 15:04:01 437.305
JAS-2 02 Apr 15:06:21 15:08:08 11° 53° (NE) 15:10:27 435.910
ITUPSAT 1 02 Apr 15:25:18 15:30:07 79° 103° (ESE) 15:34:54 437.325
SPROUT 02 Apr 15:25:36 15:27:23 12° 294° (WNW) 15:28:56 437.525
SRMSAT 02 Apr 15:35:37 15:37:29 11° 174° (S) 15:39:23 437.500
AO-7 02 Apr 15:35:44 15:42:30 30° 60° (ENE) 15:49:27 29.400- 29.500
Gurwin Techsat 1B 02 Apr 15:39:18 15:44:36 75° 257° (WSW) 15:49:57 435.225
YUBILEINY 02 Apr 15:46:45 15:54:50 38° 288° (WNW) 16:02:49 435.215
AIST 1 02 Apr 15:53:08 15:57:26 71° 82° (E) 16:01:41
ITAMSAT 1 02 Apr 16:04:08 16:08:53 34° 263° (W) 16:13:35 435.822/435.867
SWISSCUBE 02 Apr 16:11:34 16:15:49 31° 290° (WNW) 16:19:58 437.505
BEESAT 02 Apr 16:13:40 16:17:57 32° 290° (WNW) 16:22:09 436.000
JUGNU 02 Apr 16:16:25 16:17:51 11° 187° (S) 16:19:13 437.505
HORYU 2 02 Apr 16:19:09 16:23:31 63° 74° (ENE) 16:27:57 437.375
PCSat 02 Apr 16:21:30 16:25:39 21° 312° (NW) 16:29:40 145.827
KKS-1 02 Apr 16:44:45 16:49:13 76° 284° (WNW) 16:53:39 437.445
JAS-2 02 Apr 16:44:45 16:51:39 59° 71° (ENE) 16:59:14 435.910
STARS 02 Apr 17:05:56 17:10:21 69° 285° (WNW) 17:14:44 437.465
ITUPSAT 1 02 Apr 17:05:59 17:07:26 11° 297° (WNW) 17:08:37 437.325
MOZHAYETS 4 02 Apr 17:17:47 17:19:54 13° 89° (E) 17:22:17
SRMSAT 02 Apr 17:23:45 17:25:48 12° 185° (S) 17:27:49 437.500
RS-15 02 Apr 17:24:01 17:28:32 14° 100° (E) 17:34:04 29.354- 29.394
AO-7 02 Apr 17:26:40 17:34:52 61° 257° (WSW) 17:43:04 29.400- 29.500
SO-50 02 Apr 17:40:51 17:43:21 15° 109° (ESE) 17:46:07 436.795
HORYU 2 02 Apr 17:59:37 18:00:42 11° 271° (W) 18:01:29 437.375
